BON312V FALE-FIMP

Flight info

Callsign BON312V
Flight time 3h 32m
Altitude 39000
Route LE015 DCT LE017 DCT ITMIL DCT ETMOS DCT ETGUN DCT 25S045E DCT GERAG DCT ETKIS DCT FF
Aircraft A20N/M-SDE2E3FGHIRWXY/LB1

Departure

Time 2026-05-04 14:34
Airport King Shaka International Airport (FALE)

Arrival

Time 2026-05-04 18:06
Airport Sir Seewoosagur Ramgoolam International Airport (FIMP)
Time Latitude Longitude Altitude Speed Heading
2026-05-04 13:55 -29.61769 31.10755 302 ft 0 kts 307°
2026-05-04 14:26 -29.61774 31.10762 303 ft 2 kts 304°
2026-05-04 14:26 -29.61784 31.10778 306 ft 2 kts 302°
2026-05-04 14:27 -29.61792 31.10794 305 ft 2 kts 295°
2026-05-04 14:27 -29.61795 31.10812 305 ft 2 kts 235°
2026-05-04 14:27 -29.61791 31.10817 304 ft 0 kts 213°
2026-05-04 14:27 -29.61792 31.10817 304 ft 0 kts 213°
2026-05-04 14:29 -29.61824 31.10791 302 ft 6 kts 216°
2026-05-04 14:29 -29.61897 31.10727 303 ft 8 kts 218°
2026-05-04 14:30 -29.61940 31.10688 303 ft 8 kts 218°
2026-05-04 14:30 -29.61982 31.10650 302 ft 9 kts 218°
2026-05-04 14:30 -29.62102 31.10545 305 ft 11 kts 217°
2026-05-04 14:31 -29.62162 31.10492 301 ft 11 kts 217°
2026-05-04 14:31 -29.62276 31.10454 301 ft 7 kts 134°
2026-05-04 14:32 -29.62352 31.10564 299 ft 10 kts 127°
2026-05-04 14:32 -29.62394 31.10628 299 ft 10 kts 127°
2026-05-04 14:32 -29.62437 31.10692 299 ft 10 kts 127°
2026-05-04 14:32 -29.62479 31.10762 297 ft 10 kts 115°
2026-05-04 14:33 -29.62460 31.10822 298 ft 8 kts 39°
2026-05-04 14:33 -29.62303 31.10958 302 ft 58 kts 37°
2026-05-04 14:33 -29.61811 31.11384 300 ft 117 kts 37°
2026-05-04 14:33 -29.61024 31.12065 316 ft 162 kts 37°
2026-05-04 14:34 -29.60117 31.12851 761 ft 164 kts 37°
2026-05-04 14:34 -29.59209 31.13639 1324 ft 165 kts 37°
2026-05-04 14:34 -29.58278 31.14444 1915 ft 170 kts 37°
2026-05-04 14:34 -29.57317 31.15313 2298 ft 185 kts 41°
2026-05-04 14:35 -29.56313 31.16403 2602 ft 210 kts 45°
2026-05-04 14:35 -29.55221 31.17685 2805 ft 240 kts 46°
2026-05-04 14:35 -29.54014 31.19143 3344 ft 260 kts 46°
2026-05-04 14:35 -29.52759 31.20671 4048 ft 265 kts 47°
2026-05-04 14:36 -29.51497 31.22250 4781 ft 271 kts 48°
2026-05-04 14:36 -29.50217 31.23855 5492 ft 274 kts 47°
2026-05-04 14:36 -29.48918 31.25466 6307 ft 275 kts 47°
2026-05-04 14:36 -29.47610 31.27081 7019 ft 278 kts 46°
2026-05-04 14:37 -29.46275 31.28717 7711 ft 282 kts 46°
2026-05-04 14:37 -29.44919 31.30373 8400 ft 287 kts 45°
2026-05-04 14:37 -29.43558 31.32031 9100 ft 292 kts 45°
2026-05-04 14:37 -29.42158 31.33734 9811 ft 296 kts 45°
2026-05-04 14:38 -29.40717 31.35487 10251 ft 311 kts 44°
2026-05-04 14:38 -29.39184 31.37345 10498 ft 330 kts 44°
2026-05-04 14:38 -29.37565 31.39307 10767 ft 347 kts 44°
2026-05-04 14:38 -29.35884 31.41350 11217 ft 356 kts 44°
2026-05-04 14:39 -29.34179 31.43424 11791 ft 360 kts 44°
2026-05-04 14:39 -29.32451 31.45528 12383 ft 364 kts 43°
2026-05-04 14:39 -29.30704 31.47653 12997 ft 368 kts 43°
2026-05-04 14:40 -29.27160 31.51957 14226 ft 375 kts 43°
2026-05-04 14:40 -29.25366 31.54134 14832 ft 378 kts 43°
2026-05-04 14:40 -29.23554 31.56331 15445 ft 381 kts 43°
2026-05-04 14:40 -29.21727 31.58543 16054 ft 383 kts 43°
2026-05-04 14:41 -29.19891 31.60766 16660 ft 386 kts 43°
2026-05-04 14:41 -29.18036 31.63010 17251 ft 389 kts 43°
2026-05-04 14:41 -29.14293 31.67535 18337 ft 395 kts 42°
2026-05-04 14:42 -29.10481 31.72143 19219 ft 403 kts 43°
2026-05-04 14:42 -29.08765 31.74714 19655 ft 413 kts 55°
2026-05-04 14:42 -29.07571 31.77735 20102 ft 422 kts 68°
2026-05-04 14:43 -29.06757 31.80979 20552 ft 428 kts 73°
2026-05-04 14:43 -29.06142 31.84334 21025 ft 434 kts 77°
2026-05-04 14:43 -29.05633 31.87749 21490 ft 438 kts 78°
2026-05-04 14:43 -29.05161 31.91207 21949 ft 442 kts 78°
2026-05-04 14:44 -29.04687 31.94696 22397 ft 446 kts 78°
2026-05-04 14:44 -29.04194 31.98210 22840 ft 451 kts 78°
2026-05-04 14:44 -29.03677 32.01760 23279 ft 454 kts 78°
2026-05-04 14:44 -29.03141 32.05329 23658 ft 458 kts 77°
2026-05-04 14:45 -29.02597 32.08883 24013 ft 461 kts 77°
2026-05-04 14:45 -29.02031 32.12548 24376 ft 465 kts 77°
2026-05-04 14:45 -29.01464 32.16196 24728 ft 468 kts 77°
2026-05-04 14:45 -29.00900 32.19818 25076 ft 470 kts 77°
2026-05-04 14:46 -29.00326 32.23501 25422 ft 473 kts 77°
2026-05-04 14:46 -28.99747 32.27214 25770 ft 476 kts 77°
2026-05-04 14:46 -28.99164 32.30948 26105 ft 478 kts 77°
2026-05-04 14:46 -28.98579 32.34692 26442 ft 481 kts 77°
2026-05-04 14:47 -28.97989 32.38463 26775 ft 483 kts 77°
2026-05-04 14:47 -28.97396 32.42245 27091 ft 486 kts 77°
2026-05-04 14:47 -28.96798 32.46055 27405 ft 488 kts 77°
2026-05-04 14:47 -28.96197 32.49873 27720 ft 491 kts 77°
2026-05-04 14:48 -28.95591 32.53719 28015 ft 493 kts 77°
2026-05-04 14:48 -28.94980 32.57583 28316 ft 495 kts 77°
2026-05-04 14:48 -28.94367 32.61457 28602 ft 498 kts 77°
2026-05-04 14:48 -28.93748 32.65356 28886 ft 500 kts 77°
2026-05-04 14:49 -28.93126 32.69273 29165 ft 502 kts 77°
2026-05-04 14:49 -28.92501 32.73200 29432 ft 505 kts 77°
2026-05-04 14:49 -28.91870 32.77153 29702 ft 507 kts 77°
2026-05-04 14:49 -28.91238 32.81109 30019 ft 507 kts 77°
2026-05-04 14:50 -28.90604 32.85071 30339 ft 507 kts 77°
2026-05-04 14:50 -28.89969 32.89030 30650 ft 507 kts 77°
2026-05-04 14:50 -28.89334 32.92979 30951 ft 507 kts 77°
2026-05-04 14:50 -28.88697 32.96936 31259 ft 506 kts 77°
2026-05-04 14:51 -28.88061 33.00881 31570 ft 506 kts 77°
2026-05-04 14:51 -28.87421 33.04835 31866 ft 506 kts 77°
2026-05-04 14:51 -28.86781 33.08786 32176 ft 506 kts 77°
2026-05-04 14:51 -28.86141 33.12725 32476 ft 506 kts 77°
2026-05-04 14:52 -28.85499 33.16672 32783 ft 505 kts 77°
2026-05-04 14:52 -28.84858 33.20606 33090 ft 505 kts 77°
2026-05-04 14:52 -28.84223 33.24492 33390 ft 505 kts 77°
2026-05-04 14:52 -28.83581 33.28423 33686 ft 504 kts 77°
2026-05-04 14:53 -28.82935 33.32358 33966 ft 504 kts 77°
2026-05-04 14:53 -28.82290 33.36288 34208 ft 504 kts 77°
2026-05-04 14:53 -28.81643 33.40220 34440 ft 504 kts 77°
2026-05-04 14:53 -28.80997 33.44142 34683 ft 503 kts 77°
2026-05-04 14:54 -28.80351 33.48054 34950 ft 502 kts 77°
2026-05-04 14:54 -28.79703 33.51967 35186 ft 502 kts 77°
2026-05-04 14:54 -28.79055 33.55878 35399 ft 502 kts 77°
2026-05-04 14:54 -28.78407 33.59780 35608 ft 502 kts 77°
2026-05-04 14:55 -28.77756 33.63689 35817 ft 502 kts 77°
2026-05-04 14:55 -28.77105 33.67599 36010 ft 502 kts 77°
2026-05-04 14:55 -28.76453 33.71500 36202 ft 502 kts 77°
2026-05-04 14:55 -28.75799 33.75411 36387 ft 502 kts 77°
2026-05-04 14:56 -28.75143 33.79321 36583 ft 502 kts 77°
2026-05-04 14:56 -28.74488 33.83224 36749 ft 502 kts 77°
2026-05-04 14:56 -28.73831 33.87126 36937 ft 502 kts 77°
2026-05-04 14:56 -28.73172 33.91037 37112 ft 502 kts 77°
2026-05-04 14:57 -28.72512 33.94946 37284 ft 502 kts 77°
2026-05-04 14:57 -28.71852 33.98847 37451 ft 502 kts 77°
2026-05-04 14:57 -28.71190 34.02756 37618 ft 502 kts 77°
2026-05-04 14:57 -28.70526 34.06664 37785 ft 502 kts 77°
2026-05-04 14:58 -28.69863 34.10562 37947 ft 502 kts 77°
2026-05-04 14:58 -28.69198 34.14468 38096 ft 502 kts 77°
2026-05-04 14:58 -28.68533 34.18365 38251 ft 502 kts 77°
2026-05-04 14:58 -28.68090 34.20954 38350 ft 502 kts 77°
2026-05-04 14:59 -28.67205 34.26121 38545 ft 502 kts 77°
2026-05-04 14:59 -28.66528 34.30067 38673 ft 502 kts 77°
2026-05-04 14:59 -28.65186 34.37867 38925 ft 501 kts 77°
2026-05-04 15:00 -28.64523 34.41704 38959 ft 502 kts 77°
2026-05-04 15:00 -28.63179 34.49476 38964 ft 500 kts 77°
2026-05-04 15:01 -28.61377 34.59850 38971 ft 499 kts 77°
2026-05-04 15:01 -28.60025 34.67597 38977 ft 499 kts 77°
2026-05-04 15:02 -28.58669 34.75341 38977 ft 499 kts 77°
2026-05-04 15:02 -28.57309 34.83086 38983 ft 499 kts 77°
2026-05-04 15:03 -28.55946 34.90817 38983 ft 498 kts 77°
2026-05-04 15:03 -28.54579 34.98543 38990 ft 498 kts 77°
2026-05-04 15:04 -28.53209 35.06266 38989 ft 498 kts 77°
2026-05-04 15:04 -28.51842 35.13937 38993 ft 498 kts 77°
2026-05-04 15:05 -28.50462 35.21659 39000 ft 498 kts 77°
2026-05-04 15:05 -28.49079 35.29372 39000 ft 498 kts 77°
2026-05-04 15:06 -28.47692 35.37078 39004 ft 497 kts 77°
2026-05-04 15:07 -28.45607 35.48617 39006 ft 497 kts 77°
2026-05-04 15:07 -28.44210 35.56316 39010 ft 497 kts 77°
2026-05-04 15:08 -28.42810 35.64001 39018 ft 497 kts 77°
2026-05-04 15:08 -28.41407 35.71682 39016 ft 497 kts 77°
2026-05-04 15:09 -28.40000 35.79360 39023 ft 497 kts 77°
2026-05-04 15:09 -28.38586 35.87044 39022 ft 497 kts 77°
2026-05-04 15:10 -28.35884 35.98350 39026 ft 495 kts 69°
2026-05-04 15:11 -28.32392 36.09373 39030 ft 494 kts 68°
2026-05-04 15:11 -28.30016 36.16703 39038 ft 494 kts 68°
2026-05-04 15:12 -28.27665 36.23975 39036 ft 494 kts 68°
2026-05-04 15:12 -28.25303 36.31296 39039 ft 494 kts 68°
2026-05-04 15:13 -28.22939 36.38613 39039 ft 494 kts 68°
2026-05-04 15:13 -28.20574 36.45921 39040 ft 494 kts 68°
2026-05-04 15:14 -28.18203 36.53229 39046 ft 493 kts 68°
2026-05-04 15:14 -28.15831 36.60523 39049 ft 493 kts 68°
2026-05-04 15:15 -28.13457 36.67809 39056 ft 493 kts 69°
2026-05-04 15:15 -28.11081 36.75088 39055 ft 493 kts 69°
2026-05-04 15:16 -28.07509 36.85999 39056 ft 492 kts 69°
2026-05-04 15:17 -28.03932 36.96895 39061 ft 492 kts 69°
2026-05-04 15:17 -28.00351 37.07768 39064 ft 491 kts 69°
2026-05-04 15:18 -27.97962 37.15003 39066 ft 491 kts 69°
2026-05-04 15:19 -27.94374 37.25842 39070 ft 490 kts 69°
2026-05-04 15:19 -27.90778 37.36674 39070 ft 490 kts 69°
2026-05-04 15:20 -27.88377 37.43886 39073 ft 490 kts 69°
2026-05-04 15:20 -27.85973 37.51095 39075 ft 490 kts 68°
2026-05-04 15:21 -27.83585 37.58242 39076 ft 490 kts 68°
2026-05-04 15:22 -27.79953 37.69081 39080 ft 490 kts 68°
2026-05-04 15:22 -27.76347 37.79814 39078 ft 489 kts 68°
2026-05-04 15:23 -27.73928 37.86994 39080 ft 489 kts 68°
2026-05-04 15:23 -27.71503 37.94178 39087 ft 489 kts 68°
2026-05-04 15:24 -27.66649 38.08519 39081 ft 489 kts 68°
2026-05-04 15:25 -27.64217 38.15683 39086 ft 489 kts 68°
2026-05-04 15:26 -27.60560 38.26428 39087 ft 489 kts 68°
2026-05-04 15:26 -27.56896 38.37162 39090 ft 489 kts 68°
2026-05-04 15:27 -27.53225 38.47886 39087 ft 489 kts 68°
2026-05-04 15:28 -27.49547 38.58598 39091 ft 489 kts 68°
2026-05-04 15:29 -27.45863 38.69296 39099 ft 488 kts 68°
2026-05-04 15:30 -27.37260 38.94161 39096 ft 488 kts 68°
2026-05-04 15:31 -27.33556 39.04815 39100 ft 488 kts 68°
2026-05-04 15:32 -27.27365 39.22559 39099 ft 487 kts 68°
2026-05-04 15:34 -27.21155 39.40269 39101 ft 487 kts 68°
2026-05-04 15:34 -27.17424 39.50872 39102 ft 486 kts 68°
2026-05-04 15:35 -27.13692 39.61447 39100 ft 485 kts 68°
2026-05-04 15:36 -27.09954 39.72008 39101 ft 485 kts 68°
2026-05-04 15:36 -27.07459 39.79044 39102 ft 485 kts 68°
2026-05-04 15:37 -27.04961 39.86071 39103 ft 485 kts 68°
2026-05-04 15:37 -27.02478 39.93046 39104 ft 485 kts 68°
2026-05-04 15:38 -26.99973 40.00061 39101 ft 485 kts 68°
2026-05-04 15:38 -26.97384 40.07033 39104 ft 484 kts 66°
2026-05-04 15:39 -26.94747 40.13985 39103 ft 484 kts 66°
2026-05-04 15:40 -26.90797 40.24392 39106 ft 484 kts 66°
2026-05-04 15:40 -26.88166 40.31337 39108 ft 484 kts 66°
2026-05-04 15:41 -26.85536 40.38273 39103 ft 484 kts 66°
2026-05-04 15:41 -26.82903 40.45202 39105 ft 484 kts 66°
2026-05-04 15:42 -26.80268 40.52126 39106 ft 484 kts 66°
2026-05-04 15:42 -26.77626 40.59054 39099 ft 483 kts 66°
2026-05-04 15:43 -26.74984 40.65969 39106 ft 483 kts 66°
2026-05-04 15:43 -26.72340 40.72880 39106 ft 483 kts 66°
2026-05-04 15:44 -26.69693 40.79786 39104 ft 483 kts 66°
2026-05-04 15:44 -26.67057 40.86650 39105 ft 483 kts 66°
2026-05-04 15:45 -26.64404 40.93548 39105 ft 483 kts 66°
2026-05-04 15:45 -26.61747 41.00444 39104 ft 483 kts 66°
2026-05-04 15:46 -26.59087 41.07335 39104 ft 483 kts 66°
2026-05-04 15:46 -26.56424 41.14223 39105 ft 483 kts 66°
2026-05-04 15:47 -26.53755 41.21115 39105 ft 483 kts 66°
2026-05-04 15:47 -26.51085 41.27996 39107 ft 483 kts 66°
2026-05-04 15:48 -26.48413 41.34874 39106 ft 483 kts 66°
2026-05-04 15:48 -26.44393 41.45196 39103 ft 483 kts 66°
2026-05-04 15:49 -26.41712 41.52066 39100 ft 483 kts 66°
2026-05-04 15:49 -26.39028 41.58932 39103 ft 483 kts 66°
2026-05-04 15:50 -26.36794 41.64638 39102 ft 483 kts 66°
2026-05-04 15:50 -26.34104 41.71498 39102 ft 483 kts 66°
2026-05-04 15:51 -26.31410 41.78356 39101 ft 483 kts 66°
2026-05-04 15:51 -26.28711 41.85217 39100 ft 483 kts 66°
2026-05-04 15:52 -26.26011 41.92068 39102 ft 483 kts 66°
2026-05-04 15:52 -26.23308 41.98915 39103 ft 483 kts 66°
2026-05-04 15:53 -26.20601 42.05760 39101 ft 483 kts 66°
2026-05-04 15:53 -26.17907 42.12563 39099 ft 483 kts 66°
2026-05-04 15:54 -26.15193 42.19403 39101 ft 483 kts 66°
2026-05-04 15:54 -26.12456 42.26292 39100 ft 483 kts 65°
2026-05-04 15:55 -26.09754 42.33080 39099 ft 483 kts 65°
2026-05-04 15:55 -26.07012 42.39956 39098 ft 483 kts 65°
2026-05-04 15:56 -26.04303 42.46740 39098 ft 483 kts 65°
2026-05-04 15:56 -26.01570 42.53572 39101 ft 483 kts 65°
2026-05-04 15:57 -25.98837 42.60394 39098 ft 483 kts 65°
2026-05-04 15:57 -25.96100 42.67213 39094 ft 483 kts 65°
2026-05-04 15:58 -25.93360 42.74029 39098 ft 483 kts 65°
2026-05-04 15:58 -25.90617 42.80842 39093 ft 483 kts 65°
2026-05-04 15:59 -25.87867 42.87662 39091 ft 483 kts 65°
2026-05-04 15:59 -25.85117 42.94470 39089 ft 483 kts 65°
2026-05-04 16:00 -25.82364 43.01274 39089 ft 483 kts 65°
2026-05-04 16:00 -25.79607 43.08077 39088 ft 484 kts 65°
2026-05-04 16:01 -25.76844 43.14885 39089 ft 483 kts 65°
2026-05-04 16:01 -25.74080 43.21684 39092 ft 484 kts 65°
2026-05-04 16:02 -25.71312 43.28481 39087 ft 484 kts 65°
2026-05-04 16:03 -25.67157 43.38663 39086 ft 483 kts 65°
2026-05-04 16:03 -25.64382 43.45451 39091 ft 483 kts 65°
2026-05-04 16:04 -25.61607 43.52227 39089 ft 483 kts 64°
2026-05-04 16:04 -25.57438 43.62388 39086 ft 483 kts 64°
2026-05-04 16:05 -25.54656 43.69154 39086 ft 483 kts 64°
2026-05-04 16:06 -25.50476 43.79303 39081 ft 483 kts 64°
2026-05-04 16:07 -25.44910 43.92777 39079 ft 483 kts 64°
2026-05-04 16:08 -25.39316 44.06276 39078 ft 483 kts 64°
2026-05-04 16:09 -25.32304 44.23140 39076 ft 483 kts 64°
2026-05-04 16:10 -25.26682 44.36612 39079 ft 483 kts 64°
2026-05-04 16:11 -25.21046 44.50078 39086 ft 483 kts 64°
2026-05-04 16:12 -25.12565 44.70262 39086 ft 483 kts 64°
2026-05-04 16:13 -25.06895 44.83703 39087 ft 483 kts 64°
2026-05-04 16:14 -25.01215 44.97128 39091 ft 483 kts 64°
2026-05-04 16:16 -24.94315 45.14031 39087 ft 484 kts 65°
2026-05-04 16:17 -24.87474 45.30956 39088 ft 484 kts 65°
2026-05-04 16:18 -24.81969 45.44491 39095 ft 484 kts 65°
2026-05-04 16:19 -24.75070 45.61396 39092 ft 485 kts 64°
2026-05-04 16:20 -24.68166 45.78249 39091 ft 485 kts 64°
2026-05-04 16:22 -24.61221 45.95139 39089 ft 485 kts 64°
2026-05-04 16:23 -24.52850 46.15409 39085 ft 486 kts 64°
2026-05-04 16:25 -24.44444 46.35672 39093 ft 487 kts 64°
2026-05-04 16:26 -24.34585 46.59320 39125 ft 487 kts 64°
2026-05-04 16:28 -24.27515 46.76202 39158 ft 488 kts 64°
2026-05-04 16:29 -24.17562 46.99860 39178 ft 489 kts 64°
2026-05-04 16:31 -24.10433 47.16731 39177 ft 490 kts 64°
2026-05-04 16:32 -24.01822 47.37026 39161 ft 491 kts 64°
2026-05-04 16:33 -23.96060 47.50558 39155 ft 491 kts 64°
2026-05-04 16:34 -23.91723 47.60715 39147 ft 492 kts 64°
2026-05-04 16:35 -23.83015 47.81042 39151 ft 493 kts 64°
2026-05-04 16:36 -23.79138 47.90064 39146 ft 493 kts 64°
2026-05-04 16:37 -23.74759 48.00232 39147 ft 493 kts 64°
2026-05-04 16:38 -23.68907 48.13786 39150 ft 494 kts 64°
2026-05-04 16:39 -23.61564 48.30740 39148 ft 495 kts 63°
2026-05-04 16:40 -23.55663 48.44317 39144 ft 496 kts 63°
2026-05-04 16:41 -23.48267 48.61282 39148 ft 496 kts 63°
2026-05-04 16:43 -23.40843 48.78249 39141 ft 497 kts 63°
2026-05-04 16:43 -23.36395 48.88386 39144 ft 497 kts 63°
2026-05-04 16:45 -23.27431 49.08747 39143 ft 498 kts 63°
2026-05-04 16:46 -23.19925 49.25730 39141 ft 498 kts 63°
2026-05-04 16:47 -23.13908 49.39302 39142 ft 499 kts 63°
2026-05-04 16:48 -23.07871 49.52879 39139 ft 499 kts 63°
2026-05-04 16:49 -23.01827 49.66434 39138 ft 499 kts 63°
2026-05-04 16:50 -22.95771 49.79978 39140 ft 499 kts 63°
2026-05-04 16:51 -22.91219 49.90134 39143 ft 499 kts 63°
2026-05-04 16:52 -22.85172 50.03591 39142 ft 499 kts 63°
2026-05-04 16:53 -22.80611 50.13719 39138 ft 498 kts 62°
2026-05-04 16:54 -22.74524 50.27201 39145 ft 498 kts 62°
2026-05-04 16:55 -22.65368 50.47410 39142 ft 498 kts 62°
2026-05-04 16:56 -22.57739 50.64187 39137 ft 498 kts 62°
2026-05-04 16:57 -22.53142 50.74269 39131 ft 498 kts 62°
2026-05-04 16:58 -22.47001 50.87703 39166 ft 498 kts 63°
2026-05-04 16:59 -22.43969 50.94323 39131 ft 485 kts 63°
2026-05-04 17:00 -22.38018 51.07294 39136 ft 481 kts 63°
2026-05-04 17:01 -22.30572 51.23473 39131 ft 481 kts 63°
2026-05-04 17:02 -22.24604 51.36405 39108 ft 482 kts 62°
2026-05-04 17:03 -22.20076 51.46188 39132 ft 494 kts 62°
2026-05-04 17:03 -22.15435 51.56200 39128 ft 497 kts 62°
2026-05-04 17:04 -22.09252 51.69512 39129 ft 496 kts 62°
2026-05-04 17:05 -22.03068 51.82788 39126 ft 495 kts 62°
2026-05-04 17:06 -21.98422 51.92739 39126 ft 495 kts 62°
2026-05-04 17:07 -21.94306 52.01541 39127 ft 494 kts 62°
2026-05-04 17:07 -21.90686 52.09268 39127 ft 494 kts 62°
2026-05-04 17:08 -21.86048 52.19152 39126 ft 493 kts 62°
2026-05-04 17:09 -21.82973 52.25694 39125 ft 492 kts 62°
2026-05-04 17:09 -21.79882 52.32262 39126 ft 492 kts 62°
2026-05-04 17:10 -21.72154 52.48646 39125 ft 491 kts 62°
2026-05-04 17:11 -21.69064 52.55184 39128 ft 490 kts 62°
2026-05-04 17:12 -21.64425 52.64982 39127 ft 490 kts 62°
2026-05-04 17:13 -21.56687 52.81285 39125 ft 489 kts 62°
2026-05-04 17:14 -21.50856 52.94470 39124 ft 489 kts 69°
2026-05-04 17:15 -21.47426 53.04784 39122 ft 489 kts 70°
2026-05-04 17:16 -21.42976 53.18572 39117 ft 489 kts 70°
2026-05-04 17:17 -21.38499 53.32343 39116 ft 488 kts 70°
2026-05-04 17:18 -21.34012 53.46088 39115 ft 488 kts 70°
2026-05-04 17:19 -21.29531 53.59772 39110 ft 487 kts 70°
2026-05-04 17:20 -21.25032 53.73469 39117 ft 487 kts 70°
2026-05-04 17:20 -21.21668 53.83686 39116 ft 481 kts 71°
2026-05-04 17:21 -21.17211 53.97186 39111 ft 481 kts 70°
2026-05-04 17:22 -21.14976 54.03940 39112 ft 481 kts 70°
2026-05-04 17:23 -21.10504 54.17421 39105 ft 480 kts 70°
2026-05-04 17:24 -21.07522 54.26389 39105 ft 480 kts 70°
2026-05-04 17:25 -21.03036 54.39848 39111 ft 480 kts 70°
2026-05-04 17:26 -20.98541 54.53294 39111 ft 480 kts 70°
2026-05-04 17:27 -20.92910 54.70081 39105 ft 479 kts 70°
2026-05-04 17:28 -20.88393 54.83504 39110 ft 479 kts 70°
2026-05-04 17:29 -20.81597 55.03626 39104 ft 479 kts 70°
2026-05-04 17:31 -20.75932 55.20331 39087 ft 480 kts 70°
2026-05-04 17:32 -20.70231 55.37081 39075 ft 480 kts 70°
2026-05-04 17:33 -20.65656 55.50482 39072 ft 480 kts 69°
2026-05-04 17:34 -20.61074 55.63863 39069 ft 480 kts 69°
2026-05-04 17:35 -20.55326 55.80597 39083 ft 481 kts 69°
2026-05-04 17:36 -20.53021 55.87290 39086 ft 481 kts 69°
2026-05-04 17:36 -20.50713 55.93984 39095 ft 481 kts 69°
2026-05-04 17:37 -20.48400 56.00680 39102 ft 481 kts 69°
2026-05-04 17:37 -20.46101 56.07329 39099 ft 481 kts 69°
2026-05-04 17:38 -20.43781 56.14029 39102 ft 481 kts 69°
2026-05-04 17:38 -20.41461 56.20719 39099 ft 481 kts 69°
2026-05-04 17:39 -20.37974 56.30756 39101 ft 481 kts 69°
2026-05-04 17:39 -20.35647 56.37443 39095 ft 481 kts 69°
2026-05-04 17:40 -20.33314 56.44137 39092 ft 481 kts 69°
2026-05-04 17:40 -20.30982 56.50820 39096 ft 482 kts 69°
2026-05-04 17:41 -20.28670 56.57468 39096 ft 482 kts 71°
2026-05-04 17:41 -20.27992 56.60950 38932 ft 480 kts 85°
2026-05-04 17:41 -20.27738 56.64484 38388 ft 478 kts 88°
2026-05-04 17:42 -20.27676 56.68010 37698 ft 474 kts 91°
2026-05-04 17:42 -20.27643 56.71504 36916 ft 471 kts 87°
2026-05-04 17:42 -20.27345 56.74968 36133 ft 469 kts 83°
2026-05-04 17:42 -20.26891 56.78400 35354 ft 466 kts 82°
2026-05-04 17:43 -20.26413 56.81808 34568 ft 464 kts 82°
2026-05-04 17:43 -20.25932 56.85198 33728 ft 462 kts 82°
2026-05-04 17:43 -20.25450 56.88572 32778 ft 460 kts 82°
2026-05-04 17:43 -20.24968 56.91928 31902 ft 457 kts 82°
2026-05-04 17:44 -20.24494 56.95210 31148 ft 452 kts 82°
2026-05-04 17:44 -20.24011 56.98533 30418 ft 446 kts 82°
2026-05-04 17:44 -20.23543 57.01732 29633 ft 440 kts 82°
2026-05-04 17:44 -20.23082 57.04929 28804 ft 434 kts 84°
2026-05-04 17:45 -20.22905 57.08104 28004 ft 427 kts 92°
2026-05-04 17:45 -20.23138 57.11242 27403 ft 422 kts 99°
2026-05-04 17:45 -20.23589 57.14328 27195 ft 411 kts 102°
2026-05-04 17:45 -20.24125 57.17238 27013 ft 399 kts 103°
2026-05-04 17:46 -20.24702 57.20089 26851 ft 388 kts 104°
2026-05-04 17:46 -20.25279 57.22855 26693 ft 378 kts 104°
2026-05-04 17:46 -20.25839 57.25545 26542 ft 367 kts 104°
2026-05-04 17:46 -20.26376 57.28167 26395 ft 357 kts 104°
2026-05-04 17:47 -20.26889 57.30718 26267 ft 347 kts 104°
2026-05-04 17:47 -20.27381 57.33201 26137 ft 338 kts 104°
2026-05-04 17:47 -20.27857 57.35623 25935 ft 331 kts 104°
2026-05-04 17:47 -20.28537 57.37927 25624 ft 324 kts 119°
2026-05-04 17:48 -20.29761 57.39905 25300 ft 317 kts 136°
2026-05-04 17:48 -20.31452 57.41358 24969 ft 310 kts 154°
2026-05-04 17:48 -20.33449 57.42121 24641 ft 304 kts 173°
2026-05-04 17:48 -20.35539 57.42112 24316 ft 300 kts 192°
2026-05-04 17:49 -20.37470 57.41334 23984 ft 298 kts 212°
2026-05-04 17:49 -20.39013 57.39882 23642 ft 298 kts 231°
2026-05-04 17:49 -20.39985 57.37929 23226 ft 301 kts 251°
2026-05-04 17:49 -20.40244 57.35713 22822 ft 305 kts 271°
2026-05-04 17:50 -20.39778 57.33495 22430 ft 308 kts 285°
2026-05-04 17:50 -20.39000 57.31371 22075 ft 308 kts 290°
2026-05-04 17:50 -20.38111 57.29336 21740 ft 307 kts 293°
2026-05-04 17:50 -20.37159 57.27309 21393 ft 305 kts 294°
2026-05-04 17:51 -20.36206 57.25300 21082 ft 302 kts 293°
2026-05-04 17:51 -20.35252 57.23320 20767 ft 300 kts 298°
2026-05-04 17:51 -20.33932 57.21593 20423 ft 303 kts 316°
2026-05-04 17:51 -20.32168 57.20361 20073 ft 306 kts 335°
2026-05-04 17:52 -20.30100 57.19835 19713 ft 308 kts 358°
2026-05-04 17:52 -20.27998 57.20170 19367 ft 307 kts 21°
2026-05-04 17:52 -20.26200 57.21353 19016 ft 304 kts 47°
2026-05-04 17:52 -20.25033 57.23192 18673 ft 298 kts 72°
2026-05-04 17:53 -20.24711 57.25327 18319 ft 291 kts 98°
2026-05-04 17:53 -20.25014 57.27431 17993 ft 285 kts 106°
2026-05-04 17:53 -20.25533 57.29414 17809 ft 272 kts 111°
2026-05-04 17:53 -20.26139 57.31304 17408 ft 267 kts 113°
2026-05-04 17:54 -20.26772 57.33149 16919 ft 263 kts 113°
2026-05-04 17:54 -20.27387 57.34946 16552 ft 254 kts 113°
2026-05-04 17:54 -20.27977 57.36690 16152 ft 247 kts 115°
2026-05-04 17:54 -20.28675 57.38333 15748 ft 240 kts 119°
2026-05-04 17:55 -20.29405 57.39889 15447 ft 229 kts 120°
2026-05-04 17:55 -20.30093 57.41340 15236 ft 209 kts 120°
2026-05-04 17:55 -20.30720 57.42665 14925 ft 195 kts 120°
2026-05-04 17:55 -20.31325 57.43942 14490 ft 192 kts 120°
2026-05-04 17:56 -20.31924 57.45205 14033 ft 190 kts 120°
2026-05-04 17:56 -20.32507 57.46443 13666 ft 182 kts 120°
2026-05-04 17:56 -20.33063 57.47613 13305 ft 173 kts 120°
2026-05-04 17:56 -20.33598 57.48735 12973 ft 164 kts 120°
2026-05-04 17:57 -20.34113 57.49814 12508 ft 166 kts 120°
2026-05-04 17:57 -20.34649 57.50931 11939 ft 173 kts 120°
2026-05-04 17:57 -20.35207 57.52092 11363 ft 179 kts 120°
2026-05-04 17:57 -20.35781 57.53284 10804 ft 183 kts 119°
2026-05-04 17:58 -20.36366 57.54499 10256 ft 185 kts 119°
2026-05-04 17:58 -20.36957 57.55728 9678 ft 188 kts 118°
2026-05-04 17:58 -20.37546 57.56955 9071 ft 189 kts 118°
2026-05-04 17:58 -20.38143 57.58198 8502 ft 187 kts 118°
2026-05-04 17:59 -20.38732 57.59425 7967 ft 185 kts 118°
2026-05-04 17:59 -20.39315 57.60637 7468 ft 181 kts 118°
2026-05-04 17:59 -20.40618 57.62579 6962 ft 150 kts 154°
2026-05-04 18:00 -20.41626 57.62696 6645 ft 147 kts 187°
2026-05-04 18:00 -20.42582 57.62354 6334 ft 143 kts 199°
2026-05-04 18:00 -20.43473 57.61905 5989 ft 141 kts 204°
2026-05-04 18:00 -20.44093 57.61086 5548 ft 152 kts 253°
2026-05-04 18:01 -20.43966 57.59971 5165 ft 155 kts 291°
2026-05-04 18:01 -20.43466 57.58960 4814 ft 154 kts 300°
2026-05-04 18:01 -20.42903 57.57988 4451 ft 154 kts 301°
2026-05-04 18:02 -20.41381 57.56516 3667 ft 153 kts 356°
2026-05-04 18:02 -20.40372 57.56679 3288 ft 145 kts 38°
2026-05-04 18:02 -20.39889 57.57513 2983 ft 131 kts 89°
2026-05-04 18:02 -20.39938 57.58482 2991 ft 133 kts 94°
2026-05-04 18:03 -20.39909 57.59477 2997 ft 135 kts 90°
2026-05-04 18:03 -20.39854 57.60487 2743 ft 141 kts 90°
2026-05-04 18:03 -20.39953 57.61553 2251 ft 147 kts 104°
2026-05-04 18:03 -20.40272 57.62572 1869 ft 144 kts 117°
2026-05-04 18:04 -20.40733 57.63509 1463 ft 142 kts 117°
2026-05-04 18:04 -20.41177 57.64456 1090 ft 143 kts 116°
2026-05-04 18:04 -20.42048 57.66340 413 ft 138 kts 117°
2026-05-04 18:05 -20.42473 57.67226 206 ft 129 kts 117°
2026-05-04 18:05 -20.42828 57.67955 163 ft 93 kts 117°
2026-05-04 18:05 -20.43088 57.68491 149 ft 71 kts 117°
2026-05-04 18:05 -20.43286 57.68899 136 ft 56 kts 117°
2026-05-04 18:06 -20.43582 57.69514 115 ft 44 kts 117°
2026-05-04 18:06 -20.43724 57.69746 113 ft 10 kts 175°
2026-05-04 18:06 -20.43735 57.69736 111 ft 0 kts 275°
2026-05-04 18:07 -20.43723 57.69727 111 ft 5 kts 326°
2026-05-04 18:07 -20.43681 57.69690 114 ft 10 kts 314°
2026-05-04 18:07 -20.43643 57.69636 115 ft 10 kts 301°
2026-05-04 18:07 -20.43601 57.69554 114 ft 15 kts 297°
2026-05-04 18:08 -20.43547 57.69439 117 ft 19 kts 297°
2026-05-04 18:08 -20.43485 57.69311 120 ft 19 kts 297°
2026-05-04 18:08 -20.43463 57.69212 122 ft 7 kts 224°
2026-05-04 18:08 -20.43523 57.69181 124 ft 13 kts 205°
2026-05-04 18:09 -20.43541 57.69039 126 ft 10 kts 294°
2026-05-04 18:09 -20.43476 57.68897 134 ft 12 kts 297°
2026-05-04 18:10 -20.43439 57.68819 136 ft 11 kts 297°
2026-05-04 18:10 -20.43411 57.68763 138 ft 5 kts 297°
2026-05-04 18:10 -20.43396 57.68732 139 ft 5 kts 297°
2026-05-04 18:10 -20.43380 57.68700 140 ft 5 kts 297°
2026-05-04 18:11 -20.43362 57.68663 141 ft 6 kts 297°
2026-05-04 18:11 -20.43331 57.68599 143 ft 12 kts 297°
2026-05-04 18:11 -20.43295 57.68523 145 ft 11 kts 297°
2026-05-04 18:11 -20.43264 57.68457 147 ft 9 kts 293°
2026-05-04 18:12 -20.43266 57.68404 149 ft 7 kts 242°
2026-05-04 18:12 -20.43286 57.68370 149 ft 5 kts 253°
2026-05-04 18:12 -20.43279 57.68313 150 ft 9 kts 292°
2026-05-04 18:12 -20.43256 57.68258 152 ft 7 kts 295°
2026-05-04 18:13 -20.43230 57.68201 153 ft 10 kts 296°
2026-05-04 18:13 -20.43200 57.68136 155 ft 10 kts 296°
2026-05-04 18:13 -20.43147 57.68010 159 ft 9 kts 264°
2026-05-04 18:14 -20.43161 57.67951 160 ft 8 kts 256°
2026-05-04 18:14 -20.43182 57.67914 160 ft 5 kts 224°
2026-05-04 18:14 -20.43195 57.67904 160 ft 0 kts 214°